EXPRESS-AM7 (40505 NORAD) Tracking and Keplerian Element Data

This shows tracking and keplerian element data for the satellite.

Feedback or suggestion? Click here.




ElementValue
Catalog40505
NameEXPRESS-AM7
Epoch Orbit3600
Epoch Day34.73858914
Epoch Year2025
RAAN89.887
Inclination0.0191
Eccentricity0.0003026
Argument of Perigee223.6546
Mean Anonmoly126.4682
Mean Motion1.00272787
Decay Rate1.55E-06
L11 40505U 15012A 25034.73858914 .00000155 00000+0 00000+0 0 9991
L22 40505 0.0191 89.8870 0003026 223.6546 126.4682 1.00272787 36008



Live tracking and technical data element details for EXPRESS-AM7 (NORAD 40505). EXPRESS-AM7 can be tracked NOW for your location showing map with azimuth and elevation plus other details from your city location.







IsCatalogInMostPopularTable: catalog: 40505, numindb: 809
Update: records affected: 1



GetName: 40505 EXPRESS-AM7

Hit Count: updated at: Sat, 06 Dec 2025 11:30:08 GMT